Location: Bletchingley
(51.2333°N, 0.1000°W)
Time: 13:07:39
(UTC+00:00)

Lacrosse 5 rocket - Pass Details

Date: 18 September 2020
Orbit: 461 x 635 km, 57.0° (Epoch: 21 October)

Event Time Altitude Azimuth Distance (km) Brightness Sun altitude
Rises 21:24:57 0° 290° (WNW) 2,821 5.9 -28.6°
Reaches altitude 10° 21:27:16 10° 298° (WNW) 1,946 4.9 -28.8°
Enters shadow 21:30:50 39° 345° (NNW) 927 2.8 -29.2°
